When you browse on this site, cookies collect data to enhance your experience and personalize the content and advertising you see.
Visit our Privacy Policy to learn more. By continuing to use the site, you agree to this use of cookies and data.
  • In Sweden
  • List of Countries
  • For 7 days
  • Water Temperature
  • Satellite Maps
  • Weather Map
  • Weather Widgets
  • user-avatar
    Login

    Hourly Weather Çan

    Today, 20 January, Sunday

    Time Temperature Precipitation Wind Pressure Humidity
    00:00 +8°C° 0.1 mm 2 mps 756 mmHg 92%
    01:00 +8°C° 0.1 mm 2 mps 755 mmHg 92%
    02:00 +9°C° 0 mm 1 mps 755 mmHg 95%
    03:00 +9°C° 0.7 mm 1 mps 755 mmHg 95%
    04:00 +9°C° 0.7 mm 1 mps 755 mmHg 95%
    05:00 +9°C° 0.7 mm 1 mps 755 mmHg 96%
    06:00 +9°C° 0.4 mm 1 mps 755 mmHg 95%
    07:00 +9°C° 0.4 mm 1 mps 755 mmHg 94%
    08:00 +8°C° 0.4 mm 2 mps 755 mmHg 93%
    09:00 +9°C° 0.1 mm 2 mps 755 mmHg 88%
    10:00 +10°C° 0.1 mm 2 mps 755 mmHg 83%
    11:00 +11°C° 0.1 mm 3 mps 755 mmHg 77%
    12:00 +12°C° 0 mm 3 mps 754 mmHg 75%
    13:00 +13°C° 0 mm 4 mps 754 mmHg 72%
    14:00 +13°C° 0 mm 4 mps 753 mmHg 69%
    15:00 +13°C° 0 mm 4 mps 753 mmHg 73%
    16:00 +12°C° 0 mm 3 mps 753 mmHg 77%
    17:00 +12°C° 0 mm 2 mps 753 mmHg 81%
    18:00 +10°C° 0 mm 2 mps 753 mmHg 84%
    19:00 +9°C° 0 mm 2 mps 752 mmHg 87%
    20:00 +9°C° 0 mm 2 mps 752 mmHg 90%
    21:00 +9°C° 0 mm 2 mps 752 mmHg 91%
    22:00 +8°C° 0 mm 2 mps 752 mmHg 91%
    23:00 +8°C° 0 mm 2 mps 752 mmHg 92%

    Tomorrow, 21 January, Monday

    Time Temperature Precipitation Wind Pressure Humidity
    00:00 +8°C° 0 mm 2 mps 752 mmHg 92%
    01:00 +8°C° 0 mm 2 mps 752 mmHg 93%
    02:00 +8°C° 0 mm 2 mps 752 mmHg 93%
    03:00 +9°C° 0 mm 1 mps 752 mmHg 93%
    04:00 +9°C° 0 mm 1 mps 752 mmHg 93%
    05:00 +8°C° 0 mm 1 mps 752 mmHg 93%
    06:00 +8°C° 0 mm 1 mps 752 mmHg 92%
    07:00 +8°C° 0 mm 1 mps 753 mmHg 91%
    08:00 +8°C° 0 mm 1 mps 753 mmHg 90%
    09:00 +10°C° 0 mm 1 mps 753 mmHg 84%
    10:00 +11°C° 0 mm 1 mps 753 mmHg 78%
    11:00 +11°C° 0 mm 0 mps 754 mmHg 73%
    12:00 +13°C° 0 mm 1 mps 753 mmHg 73%
    13:00 +13°C° 0 mm 1 mps 753 mmHg 74%
    14:00 +13°C° 0 mm 2 mps 753 mmHg 74%
    15:00 +12°C° 0.1 mm 2 mps 753 mmHg 80%
    16:00 +10°C° 0.1 mm 2 mps 754 mmHg 85%
    17:00 +10°C° 0.1 mm 2 mps 754 mmHg 91%
    18:00 +9°C° 0.1 mm 2 mps 754 mmHg 92%
    19:00 +9°C° 0.1 mm 2 mps 754 mmHg 93%
    20:00 +9°C° 0.1 mm 2 mps 755 mmHg 94%
    21:00 +8°C° 0 mm 2 mps 755 mmHg 94%
    22:00 +8°C° 0 mm 2 mps 755 mmHg 94%
    23:00 +8°C° 0 mm 2 mps 755 mmHg 95%

    Day after tomorrow, 22 January, Tuesday

    Time Temperature Precipitation Wind Pressure Humidity
    00:00 +8°C° 0 mm 2 mps 755 mmHg 94%
    01:00 +8°C° 0 mm 2 mps 755 mmHg 93%
    02:00 +8°C° 0 mm 2 mps 755 mmHg 93%
    03:00 +7°C° 0 mm 2 mps 755 mmHg 93%
    04:00 +7°C° 0 mm 2 mps 755 mmHg 94%
    05:00 +7°C° 0 mm 2 mps 755 mmHg 94%
    06:00 +7°C° 0 mm 2 mps 755 mmHg 94%
    07:00 +6°C° 0 mm 2 mps 755 mmHg 95%
    08:00 +6°C° 0 mm 2 mps 755 mmHg 95%
    09:00 +7°C° 0 mm 2 mps 755 mmHg 90%
    10:00 +8°C° 0 mm 2 mps 755 mmHg 84%
    11:00 +10°C° 0 mm 2 mps 755 mmHg 79%
    12:00 +10°C° 0 mm 2 mps 754 mmHg 75%
    13:00 +12°C° 0 mm 2 mps 753 mmHg 72%
    14:00 +13°C° 0 mm 2 mps 753 mmHg 68%
    15:00 +12°C° 0 mm 1 mps 752 mmHg 72%
    16:00 +12°C° 0 mm 1 mps 752 mmHg 76%
    17:00 +11°C° 0 mm 1 mps 752 mmHg 80%
    18:00 +10°C° 0 mm 1 mps 752 mmHg 82%
    19:00 +10°C° 0 mm 1 mps 751 mmHg 85%
    20:00 +9°C° 0 mm 1 mps 751 mmHg 88%
    21:00 +8°C° 0 mm 2 mps 751 mmHg 88%
    22:00 +7°C° 0 mm 2 mps 751 mmHg 89%
    23:00 +7°C° 0 mm 2 mps 750 mmHg 90%

    23 January, Wednesday

    Time Temperature Precipitation Wind Pressure Humidity
    00:00 +7°C° 0 mm 2 mps 750 mmHg 89%
    01:00 +7°C° 0 mm 2 mps 750 mmHg 89%
    02:00 +7°C° 0 mm 2 mps 749 mmHg 89%
    03:00 +8°C° 0 mm 3 mps 749 mmHg 88%
    04:00 +8°C° 0 mm 3 mps 748 mmHg 88%
    05:00 +8°C° 0 mm 3 mps 748 mmHg 88%
    06:00 +7°C° 0 mm 4 mps 748 mmHg 87%
    07:00 +8°C° 0 mm 4 mps 748 mmHg 87%
    08:00 +8°C° 0 mm 4 mps 748 mmHg 86%
    09:00 +9°C° 0 mm 5 mps 748 mmHg 82%
    10:00 +11°C° 0 mm 6 mps 748 mmHg 79%
    11:00 +12°C° 0 mm 7 mps 748 mmHg 75%
    12:00 +12°C° 0 mm 7 mps 748 mmHg 74%
    13:00 +12°C° 0 mm 7 mps 748 mmHg 74%
    14:00 +12°C° 0 mm 7 mps 747 mmHg 73%
    15:00 +13°C° 0.4 mm 6 mps 747 mmHg 77%
    16:00 +12°C° 0.4 mm 5 mps 747 mmHg 81%
    17:00 +11°C° 0.4 mm 3 mps 747 mmHg 85%
    18:00 +11°C° 0.1 mm 3 mps 747 mmHg 87%
    19:00 +10°C° 0.1 mm 3 mps 747 mmHg 88%
    20:00 +10°C° 0.1 mm 2 mps 747 mmHg 90%
    21:00 +10°C° 0 mm 2 mps 747 mmHg 90%
    22:00 +10°C° 0 mm 2 mps 747 mmHg 90%
    23:00 +9°C° 0 mm 2 mps 747 mmHg 90%

    24 January, Thursday

    Time Temperature Precipitation Wind Pressure Humidity
    00:00 +9°C° 0 mm 2 mps 747 mmHg 90%
    01:00 +9°C° 0 mm 2 mps 746 mmHg 90%
    02:00 +9°C° 0 mm 2 mps 746 mmHg 90%
    03:00 +9°C° 0 mm 2 mps 745 mmHg 89%
    04:00 +9°C° 0 mm 2 mps 745 mmHg 89%
    05:00 +8°C° 0 mm 2 mps 744 mmHg 88%
    06:00 +8°C° 0 mm 2 mps 744 mmHg 87%
    07:00 +8°C° 0 mm 2 mps 743 mmHg 86%
    08:00 +8°C° 0 mm 2 mps 743 mmHg 85%
    09:00 +9°C° 0.2 mm 2 mps 743 mmHg 82%
    10:00 +10°C° 0.2 mm 3 mps 742 mmHg 78%
    11:00 +11°C° 0.2 mm 3 mps 742 mmHg 74%
    12:00 +12°C° 0.1 mm 4 mps 741 mmHg 69%
    13:00 +13°C° 0.1 mm 4 mps 740 mmHg 65%
    14:00 +14°C° 0.1 mm 5 mps 739 mmHg 60%
    15:00 +13°C° 1.8 mm 4 mps 739 mmHg 70%
    16:00 +11°C° 1.8 mm 4 mps 738 mmHg 79%
    17:00 +10°C° 1.8 mm 3 mps 738 mmHg 88%
    18:00 +10°C° 0.1 mm 3 mps 739 mmHg 88%
    19:00 +10°C° 0.1 mm 3 mps 739 mmHg 89%
    20:00 +9°C° 0.1 mm 3 mps 740 mmHg 89%
    21:00 +9°C° 0 mm 3 mps 740 mmHg 88%
    22:00 +9°C° 0 mm 3 mps 740 mmHg 88%
    23:00 +9°C° 0 mm 3 mps 740 mmHg 87%

    25 January, Friday

    Time Temperature Precipitation Wind Pressure Humidity
    00:00 +9°C° 0.6 mm 3 mps 740 mmHg 88%
    01:00 +8°C° 0.6 mm 4 mps 740 mmHg 89%
    02:00 +7°C° 0.6 mm 4 mps 740 mmHg 90%
    03:00 +7°C° 0.2 mm 4 mps 739 mmHg 88%
    04:00 +7°C° 0.2 mm 4 mps 739 mmHg 86%
    05:00 +7°C° 0.2 mm 5 mps 739 mmHg 84%
    06:00 +7°C° 0.7 mm 5 mps 739 mmHg 84%
    07:00 +8°C° 0.7 mm 5 mps 739 mmHg 84%
    08:00 +8°C° 0.7 mm 5 mps 739 mmHg 84%
    09:00 +9°C° 0.3 mm 7 mps 740 mmHg 78%
    10:00 +10°C° 0.3 mm 8 mps 740 mmHg 73%
    11:00 +11°C° 0.3 mm 9 mps 740 mmHg 68%
    12:00 +11°C° 0.2 mm 9 mps 740 mmHg 68%
    13:00 +11°C° 0.2 mm 8 mps 740 mmHg 68%
    14:00 +11°C° 0.2 mm 8 mps 740 mmHg 68%
    15:00 +11°C° 0.1 mm 7 mps 741 mmHg 71%
    16:00 +10°C° 0.1 mm 5 mps 741 mmHg 74%
    17:00 +10°C° 0.1 mm 4 mps 741 mmHg 78%
    18:00 +10°C° 0 mm 3 mps 741 mmHg 81%
    19:00 +9°C° 0 mm 3 mps 742 mmHg 84%
    20:00 +8°C° 0 mm 2 mps 742 mmHg 87%
    21:00 +8°C° 0 mm 2 mps 742 mmHg 88%
    22:00 +8°C° 0 mm 2 mps 743 mmHg 89%
    23:00 +7°C° 0 mm 2 mps 743 mmHg 91%
    Show more